Location: Luxembourg
(49.6000°N, 6.1500°W)
Time: 07:47:16
(UTC+01:00)

Tiangong 2 - Visible Passes

Search period start: 17 January 2018 00:00
Search period end: 27 January 2018 00:00
Orbit: 384 x 390 km, 42.8° (Epoch: 16 January)

Date Brightness Start Highest point End Pass type
(mag) Time Alt. Az. Time Alt. Az. Time Alt. Az.
18 Jan 3.9 08:10:05 10° SSW 08:12:04 15° SSE 08:14:03 10° ESE visible
19 Jan 4.1 07:12:32 10° S 07:13:37 11° SSE 07:14:43 10° SE visible
20 Jan 3.5 07:48:50 10° SW 07:51:13 19° SSE 07:53:36 10° ESE visible
21 Jan 3.6 06:52:18 15° S 06:52:43 16° SSE 06:54:44 10° ESE visible
21 Jan 3.1 08:26:16 10° SW 08:28:55 24° S 08:31:34 10° ESE visible
22 Jan 3.1 07:28:43 15° SW 07:30:22 22° S 07:32:57 10° ESE visible
23 Jan 3.7 06:32:47 17° SE 06:32:47 17° SE 06:34:13 10° ESE visible
23 Jan 3.0 08:05:27 10° WSW 08:08:04 23° S 08:10:41 10° SE visible
24 Jan 2.8 07:09:04 23° SSW 07:09:30 24° S 07:12:09 10° ESE visible
25 Jan 4.3 06:13:03 13° SE 06:13:03 13° SE 06:13:30 10° ESE visible
25 Jan 3.1 07:45:18 13° SW 07:47:10 20° S 07:49:38 10° SE visible
26 Jan 3.1 06:49:16 21° SSE 06:49:16 21° SSE 06:51:11 10° SE visible
26 Jan 3.6 08:23:17 10° SW 08:24:44 13° SSW 08:26:11 10° S visible
